BEIDOU-3 M9 (C29)

Last updated on Thu Nov 21 2024 00:03:16 GMT+0000 (Coordinated Universal Time)

1 43245U 18029A 24325.48335657 -.00000075 00000+0 00000+0 0 9996 2 43245 54.6976 319.9278 0002283 264.7175 95.2606 1.86232644 45219
UTC large
Height (km)
Speed (km/s)
/
Latitude / Longitude
Inclination (degrees)
Orbital Period (minutes)
Azimuth
Elevation
Range (km)
Doppler Factor

Next 0 passes for location: London (51.5072 / 0.1276)

Sorry there are no passes over London.